Regional Weather Roundup
Issued by NWS Little Rock, AR

Home | Current Version | Previous Version | Text Only | Print | Product List | Glossary On
Versions: 1 2 3 4 5 6 7 8 9 10 11 12 13 14 15 16 17 18 19 20 21 22 23 24 25 26 27 28 29 30 31 32 33 34 35 36 37 38 39 40 41 42 43 44 45 46 47 48 49 50
000
ASUS44 KLZK 271105
RWRLZK

WEATHER ROUNDUP FOR ARKANSAS
NATIONAL WEATHER SERVICE LITTLE ROCK AR
500 AM CST MON FEB 27 2017

NOTE: "FAIR" INDICATES FEW OR NO CLOUDS BELOW 12,000 FEET WITH NO
SIGNIFICANT WEATHER AND/OR OBSTRUCTIONS TO VISIBILITY.

ARZ001-003-010-029-271200-
NORTHWEST ARKANSAS

CITY           SKY/WX    TMP DP  RH WIND       PRES   REMARKS
FAYETTEVILLE   CLEAR     29  29 100 CALM      30.01R
FORT SMITH     CLEAR     42  35  76 E7        30.01R
HARRISON       CLEAR     35  30  82 SE7       30.03R WCI  29
BENTONVILLE    CLEAR     37  28  70 SE6       30.00S
ROGERS         CLEAR     38  33  82 SE9       30.01R
SILOAM SPGS    CLEAR     37  28  70 E6        29.99S
HIGHFILL       CLEAR     36  29  75 CALM      30.00R
$$

ARZ004-005-016-271200-
NORTH CENTRAL ARKANSAS

CITY           SKY/WX    TMP DP  RH WIND       PRES   REMARKS
BATESVILLE     CLOUDY    43  39  87 CALM      30.07R
FLIPPIN        CLEAR     36  27  69 CALM      30.03R
MTN HOME       CLEAR     39  30  70 SE3       30.04R
$$

ARZ040-041-271200-
WEST CENTRAL ARKANSAS

CITY           SKY/WX    TMP DP  RH WIND       PRES   REMARKS
MENA           CLOUDY    48  46  93 CALM      30.01S
MOUNT IDA      CLOUDY    48  46  93 CALM      30.00R
$$

ARZ009-017-025-026-028-271200-
NORTHEAST ARKANSAS

CITY           SKY/WX    TMP DP  RH WIND       PRES   REMARKS
CORNING        CLOUDY    46  46 100 E6        30.09R
JONESBORO      CLOUDY    48  45  89 E6        30.07R
NEWPORT        CLOUDY    47  45  93 MISG      30.07R
WALNUT RIDGE   CLOUDY    46  41  81 E5        30.07R
BLYTHEVILLE    CLOUDY    49  45  86 S7        30.08R
$$

ARZ022-023-033-042-044-271200-
CENTRAL ARKANSAS

CITY           SKY/WX    TMP DP  RH WIND       PRES   REMARKS
LITTLE ROCK    CLOUDY    46  46 100 NE3       30.06R
JACKSONVILLE   CLOUDY    46  46  99 CALM      30.05R
SEARCY         CLOUDY    46  45  96 CALM      30.07S
HOT SPRINGS    CLOUDY    48  48 100 CALM      30.03R
RUSSELLVILLE   CLEAR     38  36  92 CALM      30.03S
CLINTON        MOCLDY    36  36 100 CALM      30.07R
$$

ARZ036-271200-
EAST ARKANSAS

CITY           SKY/WX    TMP DP  RH WIND       PRES   REMARKS
WEST MEMPHIS   CLOUDY    48  47  96 SE14      30.05R
$$

ARZ050-053-066-070-073-271200-
SOUTHWEST ARKANSAS

CITY           SKY/WX    TMP DP  RH WIND       PRES   REMARKS
ARKADELPHIA    CLOUDY    49  48  97 CALM      30.04R
CAMDEN         LGT RAIN  50  48  93 CALM      30.04R
TEXARKANA      FOG       51  51 100 NE6       30.01R VSB 1/2
EL DORADO      LGT RAIN  51  51 100 S7        30.04R
DE QUEEN       TSTM      51  51 100 SE7       30.00R FOG
$$

ARZ056-057-069-271200-
SOUTHEAST ARKANSAS

CITY           SKY/WX    TMP DP  RH WIND       PRES   REMARKS
PINE BLUFF     CLOUDY    49  48  97 SW3       30.08R
STUTTGART      CLOUDY    48  39  71 NW3       30.07R
MONTICELLO     CLOUDY    49  48  97 VRB3      30.04R

$$





USA.gov is the U.S. government's official web portal to all federal, state and local government web resources and services.